EHI
8 18 30 33 30 29 26 26 28 30 31 33 39 52 60 61 55 44 36 31 27 21 12 5 1 0 1 2 2 1 2 6 9 9 8 7 5 4 3 2 1 0 0
20 29 41 43 37 31 26 23 22 22 24 27 33 44 51 53 49 42 34 28 24 18 11 4 2 2 2 2 1 0 1 4 6 7 6 6 5 4 3 2 1 0 0
41 45 53 57 49 38 30 22 17 13 14 18 24 32 38 38 35 31 26 21 19 15 9 4 3 3 3 2 1 0 1 1 2 3 2 2 2 3 2 3 2 1 0
55 55 60 66 62 50 39 29 19 12 10 12 15 19 23 21 18 16 14 13 12 10 6 3 3 2 1 1 0 1 2 1 0 0 0 0 0 1 2 3 3 1 0
57 58 62 70 69 59 47 36 25 17 13 11 9 9 10 9 8 6 5 5 6 5 3 1 1 1 0 0 0 2 3 3 1 0 0 0 0 0 2 4 3 1 0
60 61 67 75 74 63 50 39 31 23 17 12 8 5 4 3 3 2 1 1 1 1 0 0 0 0 0 0 0 2 3 3 2 0 0 0 0 0 2 5 5 2 0
68 70 75 81 78 66 53 43 37 30 24 18 12 5 2 2 1 1 0 0 0 0 0 0 0 0 0 0 0 1 2 3 1 0 0 0 0 1 3 6 7 4 1
77 79 82 82 77 68 58 50 43 38 33 27 19 8 3 1 1 0 0 0 0 0 0 0 0 0 0 0 0 1 2 1 0 0 0 0 0 2 4 6 7 5 3
82 83 84 79 73 66 61 53 47 41 37 32 25 14 6 3 2 0 0 0 0 0 0 0 0 0 0 0 0 1 2 1 0 0 0 0 0 1 4 7 8 6 5
75 77 79 77 70 65 59 52 47 42 39 36 29 20 11 6 4 2 1 1 0 0 0 0 0 0 0 0 0 1 1 1 0 0 1 1 1 2 5 9 9 7 6
63 65 69 71 68 64 58 52 48 43 40 38 32 23 14 8 5 3 2 2 1 0 0 0 0 0 0 0 1 1 0 0 1 1 2 4 5 5 8 10 11 9 8
55 56 58 61 63 61 58 55 50 42 37 35 32 25 16 8 4 3 2 2 1 0 0 0 0 0 0 0 0 0 0 0 1 2 3 5 6 7 10 12 12 12 10
52 49 48 53 57 58 56 54 48 41 36 31 28 24 17 7 2 1 1 1 1 0 0 0 0 0 0 0 0 0 0 0 1 2 3 5 6 7 8 10 11 10 8
47 43 42 46 50 53 54 52 47 41 35 29 24 21 14 6 1 1 1 0 0 0 0 0 0 0 0 0 0 0 0 0 0 1 3 6 8 7 6 7 7 6 4
41 39 38 39 42 47 50 48 44 39 32 26 21 17 11 4 1 1 1 0 0 0 0 0 0 0 0 0 0 0 0 0 0 0 3 7 9 7 6 6 6 4 4
35 35 35 35 37 41 41 39 37 34 28 20 17 14 9 3 1 1 1 0 0 0 0 0 0 1 0 0 0 0 0 0 0 1 3 5 7 8 8 8 8 7 6
32 33 33 32 31 32 32 29 28 27 21 14 12 12 8 3 1 1 2 1 1 1 1 0 0 0 0 0 0 0 0 0 1 2 3 3 5 7 9 10 10 9 9
31 32 32 28 25 24 24 22 20 18 12 8 9 10 7 3 1 2 3 3 2 1 1 0 0 0 0 0 0 0 0 1 2 2 3 3 4 6 7 8 8 7 7
29 30 29 25 21 20 19 17 13 9 5 4 5 7 6 3 2 3 4 3 3 2 1 0 0 0 0 0 0 0 0 1 2 2 2 2 2 3 4 4 4 3 2
25 26 25 22 21 20 18 14 10 6 4 2 2 3 4 4 3 4 4 4 3 2 1 0 0 0 0 0 0 0 0 0 1 1 1 1 1 1 1 1 1 1 0
19 20 20 19 20 21 19 14 10 7 5 3 2 2 4 6 6 5 5 4 3 2 0 0 0 0 0 0 0 0 0 0 0 0 0 0 0 0 0 0 0 0 0
15 15 16 16 18 19 18 14 10 7 7 6 5 4 4 6 7 6 4 4 3 1 1 1 1 1 0 0 0 0 0 0 0 0 0 0 0 0 0 0 0 0 0
13 14 15 16 16 14 14 12 9 7 7 7 6 4 4 6 6 5 4 4 3 3 2 2 2 2 1 0 0 0 0 0 0 0 0 0 0 0 0 0 0 0 0
11 12 14 14 13 11 9 9 7 5 5 5 3 3 4 5 6 5 4 4 4 3 3 3 3 2 1 0 0 0 0 0 0 0 0 0 0 0 0 0 0 0 0
9 9 10 11 9 8 7 6 4 3 3 2 2 2 3 4 5 5 4 4 4 3 3 3 2 3 2 1 0 0 0 0 0 0 0 0 0 0 0 0 0 0 0
7 7 7 8 7 6 6 5 3 2 1 1 1 2 3 4 4 4 4 4 4 3 3 3 3 3 2 1 0 0 0 0 0 0 0 0 0 0 0 0 0 0 0
Wind_Speed
10 12 17 17 17 17 16 17 17 17 17 17 17 17 17 17 17 16 16 15 14 14 13 13 12 13 13 14 15 16 16 17 17 17 17 16 15 15 16 16 14 11 15
14 14 18 18 18 18 17 17 17 16 16 16 16 16 16 16 16 15 15 14 13 13 13 13 13 13 13 14 15 15 15 16 15 16 16 14 15 15 15 15 13 9 14
16 14 17 18 18 18 18 17 17 16 16 16 16 16 16 15 15 14 14 13 12 12 12 12 12 12 13 13 14 14 14 14 14 14 13 7 9 14 15 15 14 14 13
16 13 15 18 18 18 18 17 17 17 16 16 15 15 15 15 14 13 13 13 12 12 12 12 11 12 12 12 12 12 12 12 12 12 6 5 6 14 14 14 14 13 12
14 12 14 20 18 18 18 17 17 17 16 16 15 15 15 14 13 12 13 12 12 11 11 11 11 10 10 10 10 9 9 8 8 7 5 4 5 12 14 13 13 12 11
14 12 14 19 18 17 17 17 16 17 16 16 15 15 14 13 13 12 12 12 12 11 11 11 10 10 9 9 8 7 6 5 5 4 5 5 5 11 13 13 12 12 11
13 10 13 17 17 17 17 17 16 16 15 14 14 14 13 13 12 11 11 11 11 11 11 11 10 9 8 7 6 5 4 4 4 4 5 5 6 12 12 12 12 11 10
14 12 11 16 17 17 16 16 15 14 14 13 13 13 12 12 11 11 11 11 10 10 10 10 9 8 7 6 5 4 3 2 4 5 5 5 8 12 12 12 11 10 10
13 11 9 9 12 15 15 15 14 13 13 13 12 12 12 12 11 11 10 10 10 10 10 10 9 8 7 5 4 3 2 3 3 3 5 4 9 12 13 12 11 10 9
11 10 8 8 8 8 10 14 14 13 13 13 13 13 13 12 12 12 9 9 10 10 10 10 10 8 7 6 4 3 2 3 2 3 3 5 11 12 12 12 11 10 9
10 7 7 7 7 7 7 10 11 13 12 12 11 13 11 5 5 6 8 10 10 10 10 10 9 8 7 6 5 4 2 1 2 2 3 8 12 12 12 11 10 10 9
10 8 7 7 8 7 7 6 5 6 6 6 5 7 5 4 4 6 8 10 10 10 10 10 9 8 6 2 3 3 1 2 1 2 4 9 11 12 12 11 10 9 9
10 8 7 7 7 7 5 5 3 3 3 4 5 5 4 3 3 3 3 4 5 6 4 5 5 3 3 2 2 2 2 2 1 2 3 10 11 11 11 10 9 8 8
9 8 7 6 5 6 5 5 4 3 3 3 4 5 4 3 3 3 3 3 2 2 2 2 2 3 3 3 3 3 2 2 2 2 3 10 10 10 10 10 9 8 7
8 6 6 7 6 4 4 4 4 3 3 4 3 4 5 4 4 4 4 3 3 2 2 2 3 3 3 3 2 3 3 3 3 3 2 8 9 9 9 9 9 8 7
6 6 5 6 6 5 4 3 4 4 3 3 3 4 5 4 4 4 4 4 3 3 3 3 3 3 2 1 2 3 4 4 4 4 3 5 8 8 8 8 8 8 8
4 4 5 5 5 5 4 3 3 3 3 3 3 3 4 4 4 4 4 3 3 3 3 2 3 2 2 2 2 3 4 4 5 6 5 3 4 8 9 9 8 8 8
5 4 3 4 3 4 3 3 2 1 1 2 2 2 3 4 4 4 3 3 3 3 2 3 3 3 3 3 3 2 3 4 6 6 5 4 3 4 6 9 9 8 8
5 5 3 3 3 3 3 3 3 2 3 2 2 2 2 3 3 3 3 3 3 3 3 3 3 4 4 4 4 3 3 3 4 6 6 5 5 5 3 7 9 9 9
5 6 5 3 2 2 3 3 3 3 3 2 2 2 2 1 2 2 2 3 3 3 2 3 4 4 4 4 5 5 4 3 3 4 5 5 5 5 5 4 4 7 11
6 6 5 4 3 2 2 3 3 2 1 2 2 2 2 1 1 1 2 2 2 3 3 4 5 6 4 4 5 4 4 5 5 4 3 4 5 5 5 5 4 3 4
6 5 4 4 3 2 2 2 2 3 2 2 1 2 2 2 2 1 1 2 2 2 3 4 5 4 3 3 4 4 3 2 4 4 3 4 5 4 5 6 5 5 4
9 7 5 4 3 3 3 4 3 3 2 2 1 2 3 4 3 3 2 2 2 2 3 3 4 5 4 3 2 4 4 4 3 2 3 3 3 4 4 4 5 4 4
8 8 7 6 5 4 4 4 4 4 3 3 2 2 3 4 4 3 3 3 2 2 2 2 2 3 5 4 1 1 2 5 5 3 1 2 3 3 3 4 4 4 4
8 7 7 7 7 6 5 5 5 5 4 3 3 4 4 4 5 4 4 3 2 2 3 3 3 2 2 3 2 2 2 2 3 4 4 2 1 1 2 3 3 3 3
7 7 7 7 7 6 6 6 6 6 5 5 5 4 4 3 4 5 5 4 4 3 3 3 4 4 3 3 2 2 3 3 3 3 4 4 3 1 1 2 2 2 2
Wind_Direction
158 161 158 150 142 136 131 126 121 117 115 114 113 112 111 111 112 114 116 118 119 120 120 118 116 115 114 113 112 112 113 114 115 115 113 111 111 113 112 109 106 103 104
152 158 157 152 146 141 137 132 127 124 121 119 117 115 114 114 114 114 116 117 119 121 121 120 119 118 118 117 116 117 118 120 120 118 115 111 109 113 115 112 110 110 109
147 155 156 153 149 145 141 138 134 130 128 125 123 120 119 118 117 117 119 119 121 122 123 123 121 121 121 120 119 120 122 123 122 118 113 104 106 112 116 116 115 112 111
148 152 155 154 151 148 145 142 140 138 135 133 129 127 126 124 123 123 125 125 126 126 128 127 126 126 125 123 123 124 126 128 129 124 118 117 114 117 119 119 119 117 115
144 149 156 155 153 151 148 146 145 144 142 140 137 135 134 132 130 131 133 133 133 133 134 133 132 131 130 128 127 127 127 133 135 127 127 118 116 126 126 125 123 120 119
144 149 156 155 153 153 152 150 150 149 148 147 145 143 141 140 139 140 141 142 142 141 141 140 139 137 136 135 133 129 126 128 125 123 130 135 135 136 133 132 128 126 125
142 144 152 153 153 154 155 154 154 153 152 152 150 149 148 147 148 148 148 148 148 147 147 146 145 144 144 144 141 134 126 127 127 137 143 147 151 145 142 139 136 134 132
140 139 146 152 153 155 157 156 155 155 154 154 154 154 154 153 153 154 155 154 153 153 152 152 152 153 152 155 154 147 132 129 119 139 152 159 161 153 149 146 143 142 140
132 133 137 149 154 156 156 156 154 154 155 155 155 155 157 158 160 162 161 161 160 159 160 160 162 165 166 170 174 171 151 114 107 133 156 161 166 160 156 152 150 148 147
124 130 135 140 147 153 156 160 158 157 158 158 158 159 161 164 165 166 164 167 168 169 170 170 172 176 180 187 196 194 165 112 123 140 150 170 168 165 160 158 156 155 155
126 131 139 142 146 148 154 161 161 163 163 162 164 165 162 159 160 165 170 174 177 178 179 180 184 187 193 204 212 207 173 134 138 149 158 174 171 167 162 160 160 160 159
142 148 149 151 153 151 159 150 154 163 164 164 165 166 159 153 163 166 176 179 183 186 188 191 196 198 199 209 221 218 155 157 165 168 173 176 172 168 164 162 161 162 163
146 146 147 159 158 153 148 145 154 158 162 169 168 164 159 155 164 165 168 182 184 187 188 199 203 202 196 204 211 198 176 162 173 182 175 172 168 166 163 161 161 162 163
141 147 145 152 156 159 152 156 159 158 165 182 180 172 165 165 168 166 166 166 169 174 176 184 201 213 211 208 208 199 187 164 160 161 169 166 164 163 160 159 159 158 156
136 143 151 154 150 150 146 157 159 158 169 182 184 181 175 173 174 170 173 174 179 177 178 195 196 202 215 216 207 180 168 148 132 122 136 145 146 152 152 154 155 156 153
132 145 148 149 146 141 149 162 159 163 176 180 179 185 179 173 173 174 175 170 179 195 193 192 190 180 184 172 166 154 140 132 122 118 110 122 127 131 136 140 141 141 140
124 126 126 141 146 144 145 158 156 158 165 169 167 172 170 167 166 167 167 170 183 190 189 179 175 151 158 156 139 136 132 126 123 120 113 108 114 118 122 124 124 126 127
89 86 105 118 122 134 141 137 119 124 121 119 128 152 161 161 169 168 162 174 176 177 174 171 168 149 149 141 127 127 126 126 126 124 116 109 101 100 109 117 118 119 119
97 95 97 80 86 119 125 114 100 90 79 86 95 104 126 142 156 165 163 171 162 166 173 178 157 142 138 131 121 108 97 106 122 128 121 113 108 102 95 106 109 108 105
82 86 83 84 80 92 99 93 91 84 71 60 74 83 91 114 164 172 162 167 159 162 166 155 137 131 134 133 119 97 77 75 86 104 117 111 106 107 100 92 90 96 98
58 63 70 70 71 67 100 119 112 103 102 84 62 71 87 95 194 183 165 156 155 170 169 152 136 129 127 126 110 97 69 60 71 73 90 105 104 102 100 91 81 76 84
50 50 57 57 71 87 110 122 122 126 115 92 56 53 63 69 51 70 95 136 146 150 144 146 136 131 143 147 133 131 124 83 58 62 76 99 106 104 101 96 88 82 75
37 28 35 34 57 77 98 113 118 109 107 82 41 39 35 61 60 53 67 88 103 136 147 151 148 146 158 170 156 142 151 163 132 59 64 87 102 104 103 105 102 100 95
39 23 20 36 45 56 78 101 116 120 118 102 89 79 58 59 63 53 62 71 81 105 129 144 139 150 153 160 164 129 134 139 145 139 81 67 95 108 115 116 110 105 99
45 35 26 38 40 42 58 76 88 90 85 89 84 78 63 55 53 51 53 60 67 77 87 95 97 111 143 157 154 139 110 100 111 134 148 149 92 81 105 114 116 113 108
46 40 34 38 37 38 51 62 81 93 92 87 79 75 61 51 49 42 51 57 58 59 63 77 93 94 102 117 118 127 137 143 149 131 138 146 138 106 77 89 117 127 132